| time (UTC) | temp F | wind direction | speed knots | gust knots | rain 1hr in | rain 24hr in | rain mn in | humidity % | barometer mb |
| 20260906234838 | 74 | 272 | 0.0 | 7.8 | 0.00 | 0.00 | 0.00 | 35 | 931.8 |
| 20260906234332 | 74 | 199 | 0.0 | 4.3 | 0.00 | 0.00 | 0.00 | 35 | 931.9 |
| 20260906233833 | 74 | 259 | 3.5 | 8.7 | 0.00 | 0.00 | 0.00 | 35 | 932.0 |
| 20260906233331 | 74 | 187 | 0.0 | 7.8 | 0.00 | 0.00 | 0.00 | 35 | 931.9 |
| 20260906232826 | 75 | 228 | 1.7 | 9.6 | 0.00 | 0.00 | 0.00 | 34 | 931.8 |
| 20260906232326 | 75 | 242 | 6.1 | 7.0 | 0.00 | 0.00 | 0.00 | 34 | 932.0 |
| 20260906231821 | 75 | 258 | 0.0 | 8.7 | 0.00 | 0.00 | 0.00 | 35 | 932.0 |
| 20260906231316 | 74 | 243 | 6.1 | 12.2 | 0.00 | 0.00 | 0.00 | 34 | 932.1 |
| 20260906230815 | 75 | 323 | 1.7 | 7.0 | 0.00 | 0.00 | 0.00 | 35 | 932.1 |
| 20260906230310 | 75 | 270 | 7.0 | 9.6 | 0.00 | 0.00 | 0.00 | 34 | 932.4 |
| 20260906225808 | 75 | 234 | 13.0 | 18.2 | 0.00 | 0.00 | 0.00 | 33 | 932.6 |
| 20260906225307 | 75 | 209 | 7.8 | 15.6 | 0.00 | 0.00 | 0.00 | 34 | 932.6 |
| 20260906224759 | 75 | 224 | 2.6 | 7.0 | 0.00 | 0.00 | 0.00 | 34 | 932.5 |
| 20260906224256 | 75 | 346 | 4.3 | 12.2 | 0.00 | 0.00 | 0.00 | 34 | 932.7 |
| 20260906223752 | 75 | 244 | 6.1 | 12.2 | 0.00 | 0.00 | 0.00 | 33 | 932.6 |
| 20260906223248 | 75 | 234 | 5.2 | 8.7 | 0.00 | 0.00 | 0.00 | 33 | 932.6 |
| 20260906222746 | 75 | 232 | 0.9 | 6.1 | 0.00 | 0.00 | 0.00 | 32 | 932.9 |
| 20260906222240 | 75 | 287 | 0.9 | 11.3 | 0.00 | 0.00 | 0.00 | 33 | 932.6 |
| 20260906221737 | 75 | 228 | 3.5 | 13.0 | 0.00 | 0.00 | 0.00 | 32 | 932.9 |
| 20260906221231 | 76 | 139 | 7.0 | 8.7 | 0.00 | 0.00 | 0.00 | 31 | 932.9 |
| 20260906220727 | 76 | 219 | 10.4 | 13.0 | 0.00 | 0.00 | 0.00 | 30 | 932.6 |
| 20260906220222 | 76 | 248 | 7.0 | 14.8 | 0.00 | 0.00 | 0.00 | 30 | 932.8 |
| 20260906215721 | 76 | 154 | 9.6 | 13.0 | 0.00 | 0.00 | 0.00 | 30 | 932.6 |
| 20260906215220 | 76 | 239 | 3.5 | 7.0 | 0.00 | 0.00 | 0.00 | 30 | 932.6 |
| 20260906214719 | 76 | 202 | 6.1 | 13.0 | 0.00 | 0.00 | 0.00 | 30 | 932.8 |
| 20260906214215 | 76 | 228 | 7.0 | 11.3 | 0.00 | 0.00 | 0.00 | 29 | 932.7 |
| 20260906213713 | 76 | 243 | 8.7 | 13.9 | 0.00 | 0.00 | 0.00 | 28 | 932.9 |
| 20260906213208 | 77 | 190 | 9.6 | 13.0 | 0.00 | 0.00 | 0.00 | 29 | 932.8 |
| 20260906212705 | 77 | 237 | 0.0 | 9.6 | 0.00 | 0.00 | 0.00 | 29 | 932.7 |
| 20260906212201 | 78 | 278 | 6.1 | 13.0 | 0.00 | 0.00 | 0.00 | 28 | 932.9 |
| 20260906211700 | 77 | 202 | 0.9 | 11.3 | 0.00 | 0.00 | 0.00 | 29 | 932.7 |
| 20260906211155 | 77 | 219 | 2.6 | 8.7 | 0.00 | 0.00 | 0.00 | 28 | 932.9 |
| 20260906210652 | 76 | 197 | 0.9 | 11.3 | 0.00 | 0.00 | 0.00 | 28 | 932.9 |
| 20260906210152 | 77 | 250 | 4.3 | 12.2 | 0.00 | 0.00 | 0.00 | 27 | 933.1 |
| 20260906205647 | 77 | 204 | 5.2 | 13.0 | 0.00 | 0.00 | 0.00 | 27 | 933.4 |
| 20260906205143 | 77 | 207 | 4.3 | 12.2 | 0.00 | 0.00 | 0.00 | 26 | 933.3 |
| 20260906204642 | 77 | 182 | 13.0 | 14.8 | 0.00 | 0.00 | 0.00 | 25 | 933.3 |
| 20260906204137 | 78 | 197 | 10.4 | 15.6 | 0.00 | 0.00 | 0.00 | 25 | 933.5 |
| 20260906203632 | 79 | 220 | 8.7 | 14.8 | 0.00 | 0.00 | 0.00 | 24 | 933.3 |
| 20260906203132 | 79 | 230 | 5.2 | 11.3 | 0.00 | 0.00 | 0.00 | 24 | 933.3 |
| 20260906202629 | 80 | 220 | 9.6 | 12.2 | 0.00 | 0.00 | 0.00 | 22 | 933.2 |
| 20260906202128 | 79 | 252 | 5.2 | 11.3 | 0.00 | 0.00 | 0.00 | 23 | 933.2 |
| 20260906201624 | 79 | 237 | 6.1 | 14.8 | 0.00 | 0.00 | 0.00 | 21 | 933.4 |
| 20260906201122 | 79 | 228 | 5.2 | 13.0 | 0.00 | 0.00 | 0.00 | 21 | 933.4 |
| 20260906200619 | 79 | 213 | 0.0 | 18.2 | 0.00 | 0.00 | 0.00 | 23 | 933.4 |
| 20260906200115 | 79 | 239 | 6.1 | 11.3 | 0.00 | 0.00 | 0.00 | 21 | 933.6 |
| 20260906195610 | 78 | 245 | 6.1 | 14.8 | 0.00 | 0.00 | 0.00 | 22 | 933.5 |
| 20260906195106 | 78 | 251 | 7.8 | 14.8 | 0.00 | 0.00 | 0.00 | 21 | 933.4 |
| 20260906194602 | 79 | 248 | 7.8 | 19.1 | 0.00 | 0.00 | 0.00 | 23 | 933.4 |
| 20260906194057 | 79 | 227 | 3.5 | 13.0 | 0.00 | 0.00 | 0.00 | 22 | 933.5 |
| 20260906193556 | 79 | 271 | 0.0 | 12.2 | 0.00 | 0.00 | 0.00 | 23 | 933.9 |
| 20260906193052 | 79 | 264 | 2.6 | 9.6 | 0.00 | 0.00 | 0.00 | 22 | 933.7 |
| 20260906192547 | 79 | 228 | 8.7 | 13.0 | 0.00 | 0.00 | 0.00 | 22 | 933.5 |
| 20260906192046 | 79 | 246 | 2.6 | 14.8 | 0.00 | 0.00 | 0.00 | 23 | 933.7 |
| 20260906191542 | 79 | 260 | 4.3 | 8.7 | 0.00 | 0.00 | 0.00 | 23 | 933.6 |
| 20260906191040 | 78 | 244 | 6.1 | 13.0 | 0.00 | 0.00 | 0.00 | 23 | 934.0 |
| 20260906190540 | 78 | 203 | 7.8 | 14.8 | 0.00 | 0.00 | 0.00 | 22 | 933.9 |
| 20260906190035 | 79 | 194 | 3.5 | 14.8 | 0.00 | 0.00 | 0.00 | 22 | 933.9 |
| 20260906185534 | 79 | 279 | 7.0 | 9.6 | 0.00 | 0.00 | 0.00 | 24 | 933.9 |
| 20260906185033 | 78 | 254 | 7.8 | 11.3 | 0.00 | 0.00 | 0.00 | 25 | 933.6 |
| 20260906184528 | 78 | 169 | 5.2 | 7.0 | 0.00 | 0.00 | 0.00 | 26 | 933.5 |
| 20260906184024 | 78 | 184 | 5.2 | 8.7 | 0.00 | 0.00 | 0.00 | 26 | 934.0 |
| 20260906183520 | 78 | 185 | 7.8 | 14.8 | 0.00 | 0.00 | 0.00 | 25 | 933.7 |
| 20260906183015 | 78 | 203 | 0.0 | 7.0 | 0.00 | 0.00 | 0.00 | 24 | 933.9 |
| 20260906182510 | 78 | 255 | 3.5 | 7.8 | 0.00 | 0.00 | 0.00 | 26 | 934.1 |
| 20260906182007 | 77 | 209 | 0.0 | 0.9 | 0.00 | 0.00 | 0.00 | 27 | 934.1 |
| 20260906181503 | 77 | 212 | 4.3 | 11.3 | 0.00 | 0.00 | 0.00 | 26 | 934.2 |
| 20260906180958 | 77 | 225 | 8.7 | 13.9 | 0.00 | 0.00 | 0.00 | 27 | 934.1 |
| 20260906180458 | 77 | 153 | 0.9 | 6.1 | 0.00 | 0.00 | 0.00 | 27 | 934.2 |
| 20260906175956 | 76 | 185 | 4.3 | 8.7 | 0.00 | 0.00 | 0.00 | 28 | 934.2 |
| 20260906175451 | 76 | 274 | 1.7 | 5.2 | 0.00 | 0.00 | 0.00 | 30 | 934.5 |
| 20260906174950 | 76 | 203 | 8.7 | 11.3 | 0.00 | 0.00 | 0.00 | 28 | 934.7 |
| 20260906174449 | 76 | 243 | 1.7 | 7.0 | 0.00 | 0.00 | 0.00 | 28 | 934.7 |
| 20260906173944 | 76 | 164 | 5.2 | 17.4 | 0.00 | 0.00 | 0.00 | 28 | 934.8 |
| 20260906173439 | 76 | 220 | 0.9 | 11.3 | 0.00 | 0.00 | 0.00 | 29 | 934.9 |
| 20260906172938 | 77 | 160 | 7.0 | 11.3 | 0.00 | 0.00 | 0.00 | 27 | 935.1 |
| 20260906172435 | 76 | 212 | 7.0 | 9.6 | 0.00 | 0.00 | 0.00 | 29 | 935.1 |
| 20260906171930 | 75 | 256 | 3.5 | 11.3 | 0.00 | 0.00 | 0.00 | 31 | 934.9 |
| 20260906171425 | 75 | 239 | 3.5 | 8.7 | 0.00 | 0.00 | 0.00 | 30 | 935.0 |
| 20260906170921 | 75 | 183 | 2.6 | 8.7 | 0.00 | 0.00 | 0.00 | 30 | 935.1 |
| 20260906170417 | 74 | 258 | 3.5 | 8.7 | 0.00 | 0.00 | 0.00 | 30 | 934.9 |
| 20260906165913 | 74 | 275 | 7.0 | 15.6 | 0.00 | 0.00 | 0.00 | 30 | 935.0 |
| 20260906165412 | 74 | 185 | 7.8 | 12.2 | 0.00 | 0.00 | 0.00 | 32 | 935.1 |
| 20260906164907 | 74 | 204 | 6.1 | 13.0 | 0.00 | 0.00 | 0.00 | 31 | 935.3 |
| 20260906164406 | 73 | 211 | 4.3 | 8.7 | 0.00 | 0.00 | 0.00 | 33 | 935.3 |
| 20260906163902 | 74 | 191 | 6.1 | 12.2 | 0.00 | 0.00 | 0.00 | 32 | 935.3 |
| 20260906163358 | 74 | 181 | 7.0 | 8.7 | 0.00 | 0.00 | 0.00 | 33 | 935.6 |
| 20260906162857 | 73 | 199 | 0.9 | 6.1 | 0.00 | 0.00 | 0.00 | 35 | 935.8 |
| 20260906162355 | 73 | 225 | 3.5 | 7.0 | 0.00 | 0.00 | 0.00 | 34 | 935.7 |
| 20260906161851 | 73 | 248 | 7.8 | 13.9 | 0.00 | 0.00 | 0.00 | 34 | 935.6 |
| 20260906161350 | 72 | 216 | 4.3 | 11.3 | 0.00 | 0.00 | 0.00 | 34 | 935.8 |
| 20260906160849 | 72 | 228 | 6.1 | 11.3 | 0.00 | 0.00 | 0.00 | 34 | 935.7 |
| 20260906160343 | 72 | 248 | 0.9 | 6.1 | 0.00 | 0.00 | 0.00 | 35 | 935.8 |
| 20260906155841 | 71 | 226 | 2.6 | 8.7 | 0.00 | 0.00 | 0.00 | 36 | 935.8 |
| 20260906155334 | 71 | 250 | 6.1 | 7.8 | 0.00 | 0.00 | 0.00 | 36 | 936.0 |
| 20260906154831 | 71 | 190 | 7.8 | 8.7 | 0.00 | 0.00 | 0.00 | 36 | 935.8 |
| 20260906154325 | 70 | 213 | 5.2 | 8.7 | 0.00 | 0.00 | 0.00 | 37 | 935.7 |
| 20260906153824 | 69 | 155 | 0.9 | 2.6 | 0.00 | 0.00 | 0.00 | 40 | 935.9 |
| 20260906153324 | 69 | 71 | 0.0 | 0.0 | 0.00 | 0.00 | 0.00 | 43 | 936.1 |
| 20260906152819 | 68 | 91 | 0.0 | 0.0 | 0.00 | 0.00 | 0.00 | 43 | 936.2 |
| 20260906152314 | 67 | 109 | 0.0 | 0.0 | 0.00 | 0.00 | 0.00 | 45 | 936.1 |
| 20260906151813 | 66 | 79 | 0.0 | 0.0 | 0.00 | 0.00 | 0.00 | 47 | 936.1 |
| 20260906151309 | 66 | 59 | 0.0 | 0.0 | 0.00 | 0.00 | 0.00 | 47 | 936.0 |
| 20260906150804 | 66 | 60 | 0.0 | 0.0 | 0.00 | 0.00 | 0.00 | 46 | 936.0 |
| 20260906150300 | 65 | 81 | 0.0 | 0.0 | 0.00 | 0.00 | 0.00 | 48 | 935.9 |
| 20260906145759 | 64 | 62 | 0.0 | 0.0 | 0.00 | 0.00 | 0.00 | 49 | 936.1 |
| 20260906145257 | 63 | 77 | 0.0 | 0.0 | 0.00 | 0.00 | 0.00 | 50 | 936.5 |
| 20260906144753 | 62 | 90 | 0.0 | 0.0 | 0.00 | 0.00 | 0.00 | 50 | 936.1 |
| 20260906144248 | 61 | 73 | 0.0 | 0.0 | 0.00 | 0.00 | 0.00 | 50 | 936.2 |
| 20260906143747 | 60 | 73 | 0.0 | 0.0 | 0.00 | 0.00 | 0.00 | 51 | 936.2 |
| 20260906143244 | 59 | 98 | 0.0 | 0.0 | 0.00 | 0.00 | 0.00 | 52 | 936.0 |
| 20260906142744 | 58 | 83 | 0.0 | 1.7 | 0.00 | 0.00 | 0.00 | 53 | 936.2 |
| 20260906142239 | 57 | 93 | 2.6 | 4.3 | 0.00 | 0.00 | 0.00 | 53 | 936.5 |
| 20260906141738 | 57 | 98 | 0.0 | 0.0 | 0.00 | 0.00 | 0.00 | 55 | 936.7 |
| 20260906141233 | 56 | 58 | 0.0 | 0.0 | 0.00 | 0.00 | 0.00 | 55 | 936.9 |
| 20260906140732 | 55 | 85 | 0.0 | 0.0 | 0.00 | 0.00 | 0.00 | 58 | 936.9 |
| 20260906140227 | 54 | 72 | 0.0 | 0.9 | 0.00 | 0.00 | 0.00 | 57 | 937.4 |
| 20260906135724 | 53 | 56 | 0.0 | 0.0 | 0.00 | 0.00 | 0.00 | 59 | 937.4 |
| 20260906135220 | 52 | 74 | 0.0 | 0.0 | 0.00 | 0.00 | 0.00 | 60 | 937.3 |
| 20260906134715 | 52 | 70 | 0.0 | 0.9 | 0.00 | 0.00 | 0.00 | 61 | 937.2 |
| 20260906134211 | 51 | 93 | 0.0 | 0.0 | 0.00 | 0.00 | 0.00 | 62 | 936.6 |
| 20260906133706 | 51 | 113 | 0.0 | 0.0 | 0.00 | 0.00 | 0.00 | 62 | 935.8 |
| 20260906133201 | 51 | 85 | 0.0 | 0.0 | 0.00 | 0.00 | 0.00 | 61 | 935.0 |
| 20260906132656 | 51 | 107 | 0.0 | 1.7 | 0.00 | 0.00 | 0.00 | 60 | 935.0 |
| 20260906132152 | 51 | 128 | 2.6 | 4.3 | 0.00 | 0.00 | 0.00 | 60 | 935.1 |
| 20260906131648 | 49 | 98 | 0.0 | 0.9 | 0.00 | 0.00 | 0.00 | 65 | 935.0 |
| 20260906131142 | 48 | 87 | 0.0 | 0.0 | 0.00 | 0.00 | 0.00 | 65 | 934.9 |
| 20260906130638 | 48 | 130 | 0.0 | 0.0 | 0.00 | 0.00 | 0.00 | 66 | 934.7 |
| 20260906130133 | 48 | 67 | 0.0 | 0.0 | 0.00 | 0.00 | 0.00 | 67 | 934.9 |
| 20260906125630 | 48 | 54 | 0.0 | 0.0 | 0.00 | 0.00 | 0.00 | 67 | 934.8 |
| 20260906125129 | 48 | 56 | 0.0 | 0.0 | 0.00 | 0.00 | 0.00 | 66 | 934.8 |
| 20260906124625 | 47 | 51 | 0.0 | 0.0 | 0.00 | 0.00 | 0.00 | 67 | 934.5 |
| 20260906124120 | 47 | 77 | 0.0 | 0.0 | 0.00 | 0.00 | 0.00 | 67 | 934.4 |
| 20260906123620 | 47 | 56 | 0.0 | 0.0 | 0.00 | 0.00 | 0.00 | 67 | 934.5 |
| 20260906123115 | 48 | 112 | 0.0 | 0.0 | 0.00 | 0.00 | 0.00 | 66 | 934.7 |
| 20260906122614 | 48 | 97 | 0.0 | 0.0 | 0.00 | 0.00 | 0.00 | 65 | 934.4 |
| 20260906122110 | 49 | 64 | 0.0 | 0.0 | 0.00 | 0.00 | 0.00 | 64 | 935.0 |
| 20260906121606 | 49 | 44 | 0.0 | 0.0 | 0.00 | 0.00 | 0.00 | 63 | 934.9 |
| 20260906121102 | 50 | 97 | 0.0 | 0.0 | 0.00 | 0.00 | 0.00 | 61 | 934.9 |
| 20260906120557 | 51 | 142 | 0.0 | 0.0 | 0.00 | 0.00 | 0.00 | 59 | 934.8 |
| 20260906120054 | 50 | 60 | 0.0 | 4.3 | 0.00 | 0.00 | 0.00 | 61 | 934.8 |
| 20260906115555 | 48 | 13 | 0.0 | 0.0 | 0.00 | 0.00 | 0.00 | 65 | 934.4 |
| 20260906115050 | 49 | 104 | 0.0 | 0.0 | 0.00 | 0.00 | 0.00 | 65 | 934.5 |
| 20260906114549 | 49 | 127 | 0.0 | 0.9 | 0.00 | 0.00 | 0.00 | 65 | 934.9 |
| 20260906114045 | 48 | 124 | 0.0 | 0.0 | 0.00 | 0.00 | 0.00 | 65 | 934.7 |
| 20260906113544 | 49 | 94 | 0.0 | 0.0 | 0.00 | 0.00 | 0.00 | 65 | 934.9 |
| 20260906113039 | 49 | 129 | 0.0 | 0.0 | 0.00 | 0.00 | 0.00 | 65 | 934.8 |
| 20260906112534 | 49 | 126 | 0.0 | 0.0 | 0.00 | 0.00 | 0.00 | 64 | 934.9 |
| 20260906112031 | 49 | 122 | 0.0 | 0.0 | 0.00 | 0.00 | 0.00 | 64 | 934.9 |
| 20260906111530 | 50 | 113 | 0.0 | 0.0 | 0.00 | 0.00 | 0.00 | 62 | 934.8 |
| 20260906111026 | 50 | 94 | 0.0 | 0.0 | 0.00 | 0.00 | 0.00 | 62 | 934.9 |
| 20260906110525 | 50 | 143 | 0.0 | 0.0 | 0.00 | 0.00 | 0.00 | 62 | 934.9 |
| 20260906110024 | 50 | 99 | 0.0 | 0.9 | 0.00 | 0.00 | 0.00 | 61 | 934.9 |
| 20260906105520 | 50 | 72 | 0.0 | 0.9 | 0.00 | 0.00 | 0.00 | 61 | 934.5 |
| 20260906105016 | 50 | 132 | 0.0 | 0.9 | 0.00 | 0.00 | 0.00 | 61 | 934.9 |
| 20260906104514 | 50 | 130 | 0.9 | 0.9 | 0.00 | 0.00 | 0.00 | 61 | 934.8 |
| 20260906104009 | 50 | 131 | 0.0 | 0.9 | 0.00 | 0.00 | 0.00 | 61 | 934.9 |
| 20260906103507 | 51 | 123 | 0.0 | 0.0 | 0.00 | 0.00 | 0.00 | 60 | 935.0 |
| 20260906103003 | 51 | 132 | 0.0 | 0.0 | 0.00 | 0.00 | 0.00 | 58 | 935.0 |
| 20260906102502 | 52 | 167 | 0.0 | 0.9 | 0.00 | 0.00 | 0.00 | 57 | 935.1 |
| 20260906102002 | 52 | 92 | 0.0 | 0.9 | 0.00 | 0.00 | 0.00 | 57 | 934.9 |
| 20260906101457 | 51 | 104 | 0.0 | 1.7 | 0.00 | 0.00 | 0.00 | 58 | 934.8 |
| 20260906100953 | 51 | 79 | 0.0 | 0.0 | 0.00 | 0.00 | 0.00 | 59 | 934.7 |
| 20260906100448 | 51 | 113 | 0.0 | 0.0 | 0.00 | 0.00 | 0.00 | 60 | 934.7 |
| 20260906095948 | 50 | 116 | 0.0 | 0.0 | 0.00 | 0.00 | 0.00 | 60 | 934.5 |
| 20260906095443 | 49 | 140 | 0.0 | 0.0 | 0.00 | 0.00 | 0.00 | 63 | 934.5 |
| 20260906094938 | 50 | 55 | 0.0 | 0.0 | 0.00 | 0.00 | 0.00 | 63 | 934.5 |
| 20260906094432 | 50 | 44 | 0.0 | 0.0 | 0.00 | 0.00 | 0.00 | 62 | 934.5 |
| 20260906093928 | 50 | 67 | 0.0 | 0.9 | 0.00 | 0.00 | 0.00 | 62 | 934.5 |
| 20260906093424 | 50 | 66 | 0.0 | 0.0 | 0.00 | 0.00 | 0.00 | 62 | 934.7 |
| 20260906092919 | 50 | 114 | 0.0 | 0.0 | 0.00 | 0.00 | 0.00 | 62 | 934.4 |
| 20260906092418 | 50 | 122 | 0.0 | 0.0 | 0.00 | 0.00 | 0.00 | 62 | 934.3 |
| 20260906091914 | 50 | 104 | 0.0 | 0.0 | 0.00 | 0.00 | 0.00 | 62 | 934.3 |
| 20260906091409 | 51 | 65 | 0.0 | 0.0 | 0.00 | 0.00 | 0.00 | 61 | 934.4 |
| 20260906090906 | 51 | 57 | 0.0 | 0.0 | 0.00 | 0.00 | 0.00 | 60 | 934.3 |
| 20260906090405 | 51 | 80 | 0.0 | 0.0 | 0.00 | 0.00 | 0.00 | 60 | 934.3 |
| 20260906085900 | 51 | 60 | 0.0 | 0.0 | 0.00 | 0.00 | 0.00 | 59 | 934.3 |
| 20260906085359 | 51 | 48 | 0.0 | 0.0 | 0.00 | 0.00 | 0.00 | 60 | 934.3 |
| 20260906084854 | 51 | 51 | 0.0 | 0.0 | 0.00 | 0.00 | 0.00 | 60 | 934.4 |
| 20260906084353 | 51 | 75 | 0.0 | 0.0 | 0.00 | 0.00 | 0.00 | 60 | 934.2 |
| 20260906083848 | 52 | 76 | 0.0 | 0.0 | 0.00 | 0.00 | 0.00 | 59 | 934.3 |
| 20260906083344 | 52 | 104 | 0.0 | 0.0 | 0.00 | 0.00 | 0.00 | 59 | 934.3 |
| 20260906082843 | 52 | 71 | 0.0 | 0.0 | 0.00 | 0.00 | 0.00 | 58 | 934.2 |
| 20260906082338 | 52 | 66 | 0.0 | 0.0 | 0.00 | 0.00 | 0.00 | 58 | 934.3 |
| 20260906081834 | 52 | 68 | 0.0 | 0.0 | 0.00 | 0.00 | 0.00 | 59 | 934.4 |
| 20260906081330 | 53 | 73 | 0.0 | 0.0 | 0.00 | 0.00 | 0.00 | 57 | 934.2 |
| 20260906080826 | 52 | 85 | 0.0 | 0.0 | 0.00 | 0.00 | 0.00 | 58 | 934.3 |
| 20260906080322 | 52 | 75 | 0.0 | 0.0 | 0.00 | 0.00 | 0.00 | 59 | 934.4 |
| 20260906075821 | 53 | 67 | 0.0 | 0.0 | 0.00 | 0.00 | 0.00 | 57 | 934.2 |
| 20260906075321 | 53 | 69 | 0.0 | 0.0 | 0.00 | 0.00 | 0.00 | 57 | 934.3 |
| 20260906074817 | 53 | 98 | 0.0 | 0.0 | 0.00 | 0.00 | 0.00 | 56 | 934.5 |
| 20260906074316 | 54 | 76 | 0.0 | 0.0 | 0.00 | 0.00 | 0.00 | 56 | 934.7 |
| 20260906073815 | 54 | 77 | 0.0 | 0.0 | 0.00 | 0.00 | 0.00 | 55 | 934.4 |
| 20260906073310 | 54 | 52 | 0.0 | 0.0 | 0.00 | 0.00 | 0.00 | 57 | 934.4 |
| 20260906072807 | 54 | 55 | 0.0 | 0.0 | 0.00 | 0.00 | 0.00 | 55 | 934.3 |
| 20260906072305 | 54 | 51 | 0.0 | 0.0 | 0.00 | 0.00 | 0.00 | 56 | 934.4 |
| 20260906071758 | 54 | 78 | 0.0 | 0.0 | 0.00 | 0.00 | 0.00 | 55 | 934.4 |
| 20260906071258 | 54 | 59 | 0.0 | 0.0 | 0.00 | 0.00 | 0.00 | 58 | 934.3 |
| 20260906070755 | 54 | 69 | 0.0 | 0.0 | 0.00 | 0.00 | 0.00 | 56 | 934.4 |
| 20260906070250 | 53 | 89 | 0.0 | 0.0 | 0.00 | 0.00 | 0.00 | 58 | 934.3 |
| 20260906065750 | 53 | 65 | 0.0 | 0.0 | 0.00 | 0.00 | 0.00 | 60 | 934.3 |
| 20260906065245 | 53 | 65 | 0.0 | 0.0 | 0.00 | 0.00 | 0.00 | 58 | 934.3 |
| 20260906064741 | 53 | 67 | 0.0 | 0.0 | 0.00 | 0.00 | 0.00 | 58 | 934.4 |
| 20260906064236 | 54 | 83 | 0.0 | 0.0 | 0.00 | 0.00 | 0.00 | 58 | 934.2 |
| 20260906063731 | 54 | 82 | 0.0 | 0.0 | 0.00 | 0.00 | 0.00 | 58 | 934.2 |
| 20260906063227 | 53 | 84 | 0.0 | 0.0 | 0.00 | 0.00 | 0.00 | 59 | 934.1 |
| 20260906062722 | 54 | 83 | 0.0 | 0.0 | 0.00 | 0.00 | 0.00 | 59 | 934.2 |
| 20260906062221 | 54 | 87 | 0.0 | 0.0 | 0.00 | 0.00 | 0.00 | 58 | 934.2 |
| 20260906061717 | 55 | 110 | 0.0 | 0.0 | 0.00 | 0.00 | 0.00 | 56 | 934.2 |
| 20260906061213 | 55 | 96 | 0.0 | 0.0 | 0.00 | 0.00 | 0.00 | 55 | 934.2 |
| 20260906060708 | 56 | 97 | 0.0 | 0.0 | 0.00 | 0.00 | 0.00 | 54 | 934.4 |
| 20260906060206 | 55 | 113 | 0.0 | 0.0 | 0.00 | 0.00 | 0.00 | 56 | 934.0 |
| 20260906055701 | 55 | 94 | 0.0 | 0.0 | 0.00 | 0.00 | 0.00 | 56 | 933.7 |
| 20260906055156 | 55 | 70 | 0.0 | 0.0 | 0.00 | 0.00 | 0.00 | 55 | 934.1 |
| 20260906054651 | 56 | 74 | 0.0 | 0.0 | 0.00 | 0.00 | 0.00 | 55 | 934.1 |
| 20260906054146 | 56 | 68 | 0.0 | 0.0 | 0.00 | 0.00 | 0.00 | 54 | 934.1 |
| 20260906053643 | 56 | 71 | 0.0 | 0.0 | 0.00 | 0.00 | 0.00 | 54 | 933.7 |
| 20260906053137 | 56 | 90 | 0.0 | 0.0 | 0.00 | 0.00 | 0.00 | 54 | 934.1 |
| 20260906052633 | 56 | 72 | 0.0 | 0.0 | 0.00 | 0.00 | 0.00 | 53 | 934.0 |
| 20260906052130 | 56 | 75 | 0.0 | 0.0 | 0.00 | 0.00 | 0.00 | 53 | 933.9 |
| 20260906051626 | 56 | 66 | 0.0 | 0.0 | 0.00 | 0.00 | 0.00 | 52 | 934.0 |
| 20260906051125 | 56 | 84 | 0.0 | 0.0 | 0.00 | 0.00 | 0.00 | 52 | 934.0 |
| 20260906050621 | 56 | 82 | 0.0 | 0.0 | 0.00 | 0.00 | 0.00 | 51 | 933.9 |
| 20260906050116 | 57 | 65 | 0.0 | 0.0 | 0.00 | 0.00 | 0.00 | 51 | 934.0 |
| 20260906045614 | 57 | 64 | 0.0 | 0.0 | 0.00 | 0.00 | 0.00 | 50 | 933.7 |
| 20260906045110 | 57 | 78 | 0.0 | 0.0 | 0.00 | 0.00 | 0.00 | 50 | 933.9 |
| 20260906044606 | 58 | 82 | 0.0 | 1.7 | 0.00 | 0.00 | 0.00 | 48 | 934.2 |
| 20260906044100 | 58 | 60 | 0.0 | 0.0 | 0.00 | 0.00 | 0.00 | 46 | 933.9 |
| 20260906043557 | 58 | 107 | 0.0 | 0.0 | 0.00 | 0.00 | 0.00 | 45 | 934.0 |
| 20260906043052 | 58 | 52 | 0.0 | 0.0 | 0.00 | 0.00 | 0.00 | 47 | 933.9 |
| 20260906042551 | 59 | 57 | 0.0 | 0.0 | 0.00 | 0.00 | 0.00 | 45 | 933.7 |
| 20260906042046 | 59 | 67 | 0.0 | 0.0 | 0.00 | 0.00 | 0.00 | 45 | 933.6 |
| 20260906041543 | 58 | 72 | 0.0 | 0.0 | 0.00 | 0.00 | 0.00 | 46 | 933.5 |
| 20260906041043 | 58 | 67 | 0.0 | 0.0 | 0.00 | 0.00 | 0.00 | 46 | 933.2 |
| 20260906040538 | 58 | 63 | 0.0 | 0.0 | 0.00 | 0.00 | 0.00 | 47 | 933.5 |
| 20260906040033 | 59 | 65 | 0.0 | 0.0 | 0.00 | 0.00 | 0.00 | 45 | 933.5 |
| 20260906035528 | 59 | 70 | 0.0 | 0.0 | 0.00 | 0.00 | 0.00 | 44 | 933.3 |
| 20260906035025 | 59 | 74 | 0.0 | 0.0 | 0.00 | 0.00 | 0.00 | 44 | 932.7 |
| 20260906034524 | 59 | 44 | 0.0 | 0.0 | 0.00 | 0.00 | 0.00 | 44 | 932.8 |
| 20260906034019 | 60 | 55 | 0.0 | 0.0 | 0.00 | 0.00 | 0.00 | 44 | 932.9 |
| 20260906033514 | 60 | 62 | 0.0 | 0.0 | 0.00 | 0.00 | 0.00 | 41 | 932.7 |
| 20260906033010 | 61 | 71 | 0.0 | 0.0 | 0.00 | 0.00 | 0.00 | 41 | 932.8 |
| 20260906032507 | 61 | 66 | 0.0 | 0.0 | 0.00 | 0.00 | 0.00 | 39 | 932.7 |
| 20260906032007 | 62 | 62 | 0.0 | 0.0 | 0.00 | 0.00 | 0.00 | 38 | 932.6 |
| 20260906031502 | 62 | 61 | 0.0 | 0.0 | 0.00 | 0.00 | 0.00 | 38 | 932.4 |
| 20260906030957 | 63 | 91 | 0.0 | 0.0 | 0.00 | 0.00 | 0.00 | 36 | 932.3 |
| 20260906030451 | 63 | 67 | 0.0 | 0.9 | 0.00 | 0.00 | 0.00 | 36 | 932.5 |
| 20260906025946 | 64 | 66 | 0.0 | 0.0 | 0.00 | 0.00 | 0.00 | 36 | 932.0 |
| 20260906025446 | 64 | 52 | 0.0 | 0.0 | 0.00 | 0.00 | 0.00 | 37 | 932.1 |
| 20260906024944 | 65 | 51 | 0.0 | 0.0 | 0.00 | 0.00 | 0.00 | 40 | 931.7 |
| 20260906024444 | 65 | 61 | 0.0 | 0.0 | 0.00 | 0.00 | 0.00 | 37 | 931.9 |
| 20260906023939 | 66 | 62 | 0.0 | 0.0 | 0.00 | 0.00 | 0.00 | 33 | 931.6 |
| 20260906023436 | 66 | 19 | 0.0 | 0.0 | 0.00 | 0.00 | 0.00 | 33 | 931.8 |
| 20260906022935 | 66 | 18 | 0.0 | 0.0 | 0.00 | 0.00 | 0.00 | 34 | 932.8 |
| 20260906022431 | 67 | 19 | 0.0 | 0.0 | 0.00 | 0.00 | 0.00 | 35 | 933.2 |
| 20260906021926 | 68 | 18 | 0.0 | 0.0 | 0.00 | 0.00 | 0.00 | 29 | 933.3 |
| 20260906021426 | 69 | 18 | 0.0 | 0.0 | 0.00 | 0.00 | 0.00 | 33 | 933.3 |
| 20260906020920 | 69 | 18 | 0.0 | 0.0 | 0.00 | 0.00 | 0.00 | 31 | 933.1 |
| 20260906020415 | 69 | 18 | 0.0 | 0.0 | 0.00 | 0.00 | 0.00 | 32 | 933.3 |
| 20260906015909 | 70 | 18 | 0.0 | 0.0 | 0.00 | 0.00 | 0.00 | 29 | 933.2 |
| 20260906015409 | 71 | 18 | 0.0 | 0.0 | 0.00 | 0.00 | 0.00 | 27 | 933.3 |
| 20260906014903 | 72 | 18 | 0.0 | 0.0 | 0.00 | 0.00 | 0.00 | 27 | 933.2 |
| 20260906014402 | 73 | 18 | 0.0 | 0.0 | 0.00 | 0.00 | 0.00 | 25 | 933.2 |
| 20260906013859 | 74 | 12 | 0.0 | 0.0 | 0.00 | 0.00 | 0.00 | 24 | 933.2 |
| 20260906013354 | 75 | 12 | 0.0 | 0.0 | 0.00 | 0.00 | 0.00 | 23 | 933.4 |
| 20260906012849 | 76 | 0 | 0.0 | 0.0 | 0.00 | 0.00 | 0.00 | 22 | 933.5 |
| 20260906012344 | 77 | 9 | 0.0 | 0.0 | 0.00 | 0.00 | 0.00 | 21 | 933.4 |
| 20260906011844 | 77 | 307 | 0.0 | 0.0 | 0.00 | 0.00 | 0.00 | 23 | 933.5 |
| 20260906011339 | 78 | 2 | 0.0 | 0.0 | 0.00 | 0.00 | 0.00 | 21 | 933.3 |
| 20260906010835 | 78 | 232 | 1.7 | 7.0 | 0.00 | 0.00 | 0.00 | 20 | 933.5 |
| 20260906010331 | 78 | 195 | 3.5 | 7.8 | 0.00 | 0.00 | 0.00 | 21 | 933.5 |
| 20260906005826 | 79 | 191 | 4.3 | 9.6 | 0.00 | 0.00 | 0.00 | 21 | 933.4 |
| 20260906005325 | 80 | 307 | 1.7 | 1.7 | 0.00 | 0.00 | 0.00 | 21 | 933.6 |
| 20260906004824 | 80 | 270 | 0.0 | 1.7 | 0.00 | 0.00 | 0.00 | 20 | 933.4 |
| 20260906004324 | 80 | 273 | 0.0 | 5.2 | 0.00 | 0.00 | 0.00 | 19 | 933.5 |
| 20260906003819 | 80 | 191 | 0.0 | 1.7 | 0.00 | 0.00 | 0.00 | 20 | 933.9 |
| 20260906003314 | 80 | 244 | 6.1 | 7.8 | 0.00 | 0.00 | 0.00 | 20 | 933.6 |
| 20260906002810 | 81 | 326 | 2.6 | 7.8 | 0.00 | 0.00 | 0.00 | 20 | 933.7 |
| 20260906002309 | 80 | 342 | 3.5 | 6.1 | 0.00 | 0.00 | 0.00 | 19 | 933.5 |
| 20260906001805 | 81 | 278 | 2.6 | 11.3 | 0.00 | 0.00 | 0.00 | 19 | 933.5 |
| 20260906001300 | 81 | 244 | 1.7 | 6.1 | 0.00 | 0.00 | 0.00 | 18 | 933.4 |
| 20260906000756 | 82 | 323 | 0.0 | 7.0 | 0.00 | 0.00 | 0.00 | 19 | 933.6 |
| 20260906000256 | 82 | 312 | 0.9 | 2.6 | 0.00 | 0.00 | 0.00 | 19 | 933.5 |
| 20260905235750 | 81 | 232 | 5.2 | 7.8 | 0.00 | 0.00 | 0.00 | 19 | 933.6 |
| 20260905235250 | 81 | 263 | 7.8 | 8.7 | 0.00 | 0.00 | 0.00 | 18 | 933.5 |